Location: Unspecified
(0.0000°N, 0.0000°E)
Time: 03:23:06
(UTC+02:00)

SJ-6B - Visible Passes

Search period start: 25 May 2016 00:00
Search period end: 04 June 2016 00:00
Orbit: 512 x 586 km, 97.8° (Epoch: 23 May)

Date Brightness Start Highest point End Pass type
(mag) Time Alt. Az. Time Alt. Az. Time Alt. Az.
25 May 2.6 20:45:59 10° SSE 20:49:43 77° ENE 20:53:26 10° N visible
26 May 2.7 20:41:30 10° SSE 20:45:13 63° ENE 20:48:54 10° N visible
27 May 2.8 20:37:03 10° SSE 20:40:42 52° ENE 20:44:19 10° N visible
28 May 3.1 20:32:37 10° SSE 20:36:11 43° ENE 20:39:45 10° N visible
29 May 3.3 20:28:13 10° SE 20:31:40 36° ENE 20:35:07 10° N visible
30 May 3.6 20:23:50 10° SE 20:27:09 30° ENE 20:30:28 10° NNE visible
31 May 3.8 20:19:29 10° SE 20:22:38 26° ENE 20:25:47 10° NNE visible
02 Jun 5.7 21:46:34 10° SW 21:48:02 12° WSW 21:49:30 10° WNW visible
03 Jun 5.6 21:41:28 10° SW 21:43:31 14° WSW 21:45:34 10° WNW visible
